Theta_e
310 310 310 310 310 311 311 311 311 312 312 312 312 312 312 312 312 312 313 312 312 315 315 315 315 315 315 316 317 316 313 313 314 311 313 314 314 315 316 316 315 316 317 317 317
310 310 310 310 311 311 311 311 311 312 312 312 312 312 312 312 313 313 313 313 311 314 315 315 315 315 316 316 317 315 311 311 310 309 313 314 314 316 315 315 314 316 317 317 317
311 311 312 312 312 312 312 312 312 312 312 312 312 312 312 312 313 312 315 313 312 312 315 315 315 315 315 315 316 313 313 310 312 312 313 314 313 315 314 313 317 317 317 316 316
312 312 312 312 312 312 312 312 312 312 312 312 312 312 312 312 310 312 313 313 313 313 314 315 314 315 314 313 315 314 314 313 315 315 315 313 314 313 314 317 316 317 317 317 316
311 310 310 309 309 310 310 310 310 310 311 311 312 312 312 312 313 314 313 313 312 313 314 314 314 315 313 312 313 313 313 315 316 315 315 315 314 313 314 316 315 316 316 315 315
310 311 312 313 314 314 315 315 315 315 314 312 310 309 310 310 313 314 313 313 313 313 313 314 313 314 313 313 312 312 313 313 313 314 314 313 314 313 314 314 314 315 315 315 314
316 315 315 315 315 315 315 315 316 317 317 317 315 312 308 310 313 313 314 314 313 313 313 313 313 313 313 311 312 312 311 308 308 311 310 311 311 309 314 314 314 314 314 314 315
314 313 313 312 312 311 311 311 311 312 312 313 313 313 312 316 312 310 311 312 312 312 313 313 313 312 312 312 310 309 308 309 309 308 310 312 311 311 313 312 313 314 314 314 314
318 318 318 317 317 317 318 317 316 314 310 310 311 310 311 313 312 311 309 311 311 311 311 311 311 311 311 308 307 306 308 306 307 307 308 309 310 309 312 311 312 313 313 313 314
320 320 321 321 321 321 322 321 320 316 311 310 309 308 311 313 312 311 311 310 311 310 310 311 311 307 304 307 310 308 306 305 307 309 306 308 309 309 311 310 309 310 311 311 312
323 323 324 324 324 324 324 323 320 316 314 314 312 311 312 312 310 311 312 311 311 310 308 309 307 308 309 307 306 307 305 305 305 306 307 309 309 308 308 308 309 310 310 310 310
324 324 323 323 323 323 324 322 318 315 311 321 321 317 320 313 311 312 311 310 310 308 306 306 307 307 307 306 306 307 308 308 308 307 304 306 308 309 309 309 310 310 310 310 311
324 324 323 323 323 323 323 322 321 313 311 317 317 314 315 313 310 311 311 310 308 306 305 308 309 307 306 307 307 305 306 308 307 306 305 304 308 307 307 307 309 312 310 311 311
323 322 322 323 323 323 323 322 322 317 313 312 309 308 307 308 308 309 309 310 308 308 306 306 306 307 306 306 306 309 306 307 306 307 308 307 310 311 312 311 309 309 311 311 311
322 321 321 321 322 322 322 322 322 315 326 313 307 309 309 307 307 307 309 309 308 307 307 309 306 307 307 308 305 308 307 307 306 306 307 307 308 307 307 309 309 309 310 311 311
320 320 320 320 320 320 321 320 319 319 326 317 307 308 308 308 307 308 308 308 307 306 305 305 306 305 307 306 305 307 308 305 303 305 308 308 309 309 309 310 310 310 310 310 310
317 316 316 317 320 321 320 320 321 323 318 313 307 306 306 307 307 306 307 307 307 308 306 305 305 306 306 308 306 307 307 309 310 309 313 306 307 310 309 306 309 308 310 308 310
312 311 312 314 317 319 319 317 320 320 320 317 317 313 317 311 309 306 306 306 305 305 305 306 315 305 304 307 308 306 308 312 316 310 317 306 310 310 307 308 308 309 308 308 306
309 308 308 310 311 315 317 320 319 317 317 318 317 319 318 312 314 312 313 317 314 306 312 314 315 305 303 305 307 306 308 308 310 302 305 311 310 309 305 306 306 305 303 302 302
307 306 306 306 307 311 315 315 316 316 316 317 320 319 318 315 311 309 309 307 306 304 305 309 313 310 306 305 305 306 306 309 308 314 315 313 311 312 311 310 304 301 300 300 301
301 299 303 305 307 312 313 310 312 314 316 316 317 318 318 318 315 316 315 315 310 308 306 310 313 313 312 307 307 306 307 307 307 314 317 316 314 309 306 300 300 299 298 297 298
299 298 304 309 311 310 311 310 311 311 312 312 314 314 315 315 316 315 316 315 313 308 310 312 315 315 315 311 305 307 308 309 313 313 310 313 314 312 301 299 296 295 294 294 294
302 302 308 310 309 309 309 310 311 310 310 312 312 312 312 312 314 312 312 311 311 311 313 311 313 315 313 309 307 309 309 309 312 312 315 316 314 308 306 298 294 293 292 292 292
299 296 303 308 308 307 306 306 307 308 309 310 310 310 310 311 310 311 311 310 309 308 308 309 311 314 315 312 310 312 311 309 310 310 311 310 309 307 306 299 293 294 292 291 291
297 296 299 297 301 304 305 305 306 305 307 307 308 308 308 310 308 308 308 306 304 302 303 306 309 308 309 309 304 304 304 303 304 304 305 305 304 304 298 293 292 291 292 293 292
296 296 297 296 298 300 301 302 303 302 304 303 305 300 301 305 306 306 301 301 300 297 299 300 302 301 297 300 301 300 299 299 300 300 300 301 301 293 292 291 290 289 290 291 290
293 294 294 293 295 295 295 299 297 297 296 296 296 296 297 300 296 296 295 296 296 297 296 297 298 296 300 299 294 296 295 296 295 295 296 297 294 289 289 290 290 289 289 290 288
Wind_Speed
7 8 8 8 8 8 8 8 8 8 9 9 10 11 11 12 13 15 17 11 9 12 10 8 7 6 5 4 4 4 3 2 5 6 5 3 2 3 4 8 8 10 18 21 21
8 9 10 10 10 10 11 11 11 11 11 11 11 13 14 15 17 21 9 9 11 9 12 10 9 8 5 5 4 4 3 8 7 6 5 4 6 11 4 8 14 17 24 25 25
10 11 12 13 13 13 13 13 14 14 14 14 14 15 16 17 18 2 2 6 1 8 11 11 9 9 6 5 8 6 6 6 8 17 11 7 6 8 5 7 27 19 22 20 21
13 14 14 15 15 16 16 16 16 17 17 16 16 16 18 16 6 2 4 13 10 9 14 13 10 7 5 5 8 3 15 11 6 8 6 6 6 5 14 31 36 34 29 32 32
14 15 15 16 16 17 17 18 18 18 19 19 18 17 18 10 18 21 20 16 10 11 16 16 15 9 5 5 4 4 6 13 23 18 22 22 25 11 22 42 41 38 33 32 29
14 14 16 16 17 18 18 19 20 20 19 19 18 18 18 14 15 10 10 10 10 11 16 17 9 15 3 4 7 3 9 13 13 20 16 8 28 4 24 32 36 33 33 29 29
14 15 15 16 18 18 19 20 22 22 21 20 19 17 20 32 21 19 20 20 15 15 17 18 20 11 5 3 6 4 7 8 9 15 9 6 10 11 37 26 29 34 30 24 28
11 12 13 14 15 16 18 20 21 21 20 19 18 17 17 23 23 24 24 29 23 17 15 15 14 14 9 5 2 3 1 4 2 6 3 10 11 19 25 21 24 23 26 29 31
9 10 11 13 14 15 17 18 19 19 18 15 13 12 10 16 15 17 21 20 16 14 13 8 11 6 4 3 4 2 5 7 9 11 5 7 9 14 14 13 22 35 42 44 49
8 9 11 12 14 16 17 17 17 15 11 7 9 5 15 10 9 9 10 12 9 11 8 8 6 3 3 3 8 8 5 6 6 5 6 6 15 14 37 29 33 36 47 41 46
8 10 12 14 16 18 19 18 8 4 5 8 10 11 15 10 10 10 8 11 10 9 5 3 3 8 18 15 2 2 5 7 7 8 5 19 18 17 25 27 35 39 36 37 36
13 15 16 17 17 17 16 8 9 9 13 20 26 29 32 31 10 13 11 10 8 5 7 3 6 13 1 3 7 8 12 13 11 13 5 10 20 21 23 30 36 34 37 28 30
15 17 17 16 17 15 10 10 13 16 7 12 19 16 21 19 10 13 12 7 5 7 8 9 6 5 7 4 7 5 6 12 12 6 5 8 7 3 5 10 23 32 29 30 24
7 7 9 10 9 5 8 11 14 17 4 7 2 2 2 3 3 7 14 6 3 9 6 7 5 7 3 6 10 9 10 13 6 4 4 3 8 3 17 17 10 21 22 20 14
16 14 11 7 7 6 6 9 12 7 6 3 1 1 0 1 1 2 10 3 3 5 5 8 6 4 5 9 7 10 1 3 2 3 3 3 4 6 1 5 5 7 14 11 12
13 13 13 11 8 7 5 7 10 1 7 4 2 3 1 0 2 2 1 1 1 2 2 6 4 6 8 4 7 2 1 3 4 1 4 11 9 4 3 4 1 6 13 14 10
13 13 11 9 5 4 3 3 2 5 6 7 4 4 4 4 3 3 3 2 1 4 3 3 4 4 3 1 2 3 5 4 4 1 7 4 3 5 7 6 4 6 16 9 15
13 12 10 9 8 7 1 2 6 3 4 5 3 1 4 3 3 3 1 2 6 4 2 4 11 7 4 7 7 7 9 6 6 3 13 2 7 5 8 6 8 15 15 10 32
17 19 18 14 11 9 4 6 6 5 5 4 3 5 4 3 6 5 9 20 14 13 7 5 9 3 5 3 2 3 5 2 0 2 2 6 12 7 5 7 6 21 29 34 34
18 17 21 15 16 15 5 12 6 7 2 3 5 6 6 4 4 2 1 2 4 2 6 4 7 3 3 1 2 6 3 1 2 2 6 12 7 7 9 11 17 18 26 31 31
14 4 6 11 14 13 7 7 7 19 10 5 7 10 5 3 4 5 6 6 8 6 10 8 6 8 3 4 7 1 3 3 2 5 4 5 10 7 11 10 8 9 17 23 27
7 2 5 17 8 5 7 4 5 6 6 4 4 12 13 12 11 10 13 10 7 8 7 9 5 6 13 12 8 8 8 7 11 17 12 18 21 13 13 11 10 10 12 16 18
7 3 9 19 4 7 6 6 7 4 6 4 5 5 3 9 6 11 10 5 5 4 2 2 4 4 5 3 3 4 1 6 9 10 19 14 7 7 5 10 11 9 12 15 18
5 1 3 14 14 4 7 10 8 6 8 13 7 6 6 10 8 10 9 5 8 5 6 3 3 12 15 10 6 5 7 7 4 3 5 9 13 17 22 13 12 8 8 11 14
4 2 3 3 5 6 4 7 2 4 4 3 1 3 2 4 5 7 2 2 1 7 4 3 11 13 17 8 5 6 10 14 15 17 13 21 22 24 7 8 10 9 9 10 14
5 3 3 2 6 4 6 6 9 6 6 11 10 4 3 6 10 15 4 2 2 4 3 4 3 4 4 7 7 12 18 19 18 21 21 22 25 6 1 7 11 15 11 11 8
5 5 3 3 2 4 4 2 2 1 4 6 6 2 2 2 2 4 8 10 7 4 2 2 2 1 9 11 8 12 17 18 10 1 2 9 2 1 3 6 9 17 14 15 23
Wind_Direction
327 329 330 331 332 331 330 329 329 328 327 328 327 326 324 321 314 304 295 278 261 236 233 225 214 203 193 193 172 155 68 216 243 171 243 231 259 242 239 257 248 238 252 278 280
312 313 313 314 315 315 314 313 313 313 313 314 315 315 317 318 315 307 287 277 246 232 229 227 215 200 185 187 187 148 145 222 216 199 222 239 233 271 254 251 259 258 273 275 276
301 302 303 303 304 303 301 301 302 302 303 306 309 311 314 320 323 263 108 33 64 228 221 221 217 201 198 190 194 182 206 216 240 239 252 260 251 245 221 263 267 259 292 292 279
292 295 296 297 298 299 298 298 297 296 295 296 299 302 304 308 297 236 275 305 295 235 218 211 201 190 194 203 203 216 239 229 253 240 252 244 261 227 225 265 288 289 290 288 285
289 291 292 294 295 295 296 295 294 292 291 291 290 290 295 280 264 282 282 282 269 241 223 218 200 196 190 197 197 231 257 250 257 258 265 272 265 242 250 280 288 286 285 284 283
289 292 293 295 295 297 297 296 293 292 291 290 288 284 281 264 277 276 275 266 255 240 227 222 220 222 253 212 189 260 269 272 278 269 259 217 272 223 265 281 286 287 290 291 286
291 294 297 298 299 301 299 298 295 294 292 290 286 279 272 265 271 271 269 270 258 254 239 230 222 193 191 252 239 270 300 305 236 256 224 212 285 234 274 281 284 286 289 296 297
298 301 304 307 309 307 309 304 300 297 292 285 278 270 259 276 272 264 262 261 258 244 235 236 229 229 240 256 300 277 155 299 261 155 236 165 260 273 288 276 270 283 288 292 292
321 325 325 325 327 324 325 317 314 306 299 287 269 243 263 266 269 268 260 255 257 235 221 215 192 194 193 131 8 306 245 226 313 212 139 188 261 263 290 264 274 285 286 286 286
323 328 331 331 331 328 331 326 316 304 302 290 250 241 245 264 269 274 265 232 218 198 170 176 182 138 45 121 234 223 230 242 243 281 197 215 251 274 282 286 279 277 279 277 283
313 318 323 327 331 333 336 347 345 321 325 280 278 248 279 284 279 271 243 194 177 166 167 169 132 197 219 208 96 173 228 248 259 256 300 278 275 276 273 276 273 273 275 278 284
298 304 309 315 321 332 343 17 355 311 296 284 271 256 257 260 252 253 224 180 173 169 117 54 231 228 29 156 233 254 268 273 275 261 195 265 282 278 262 259 266 275 280 283 294
285 287 297 307 313 324 358 1 347 336 271 278 257 258 260 257 237 244 213 197 158 153 193 196 218 187 194 191 255 228 229 255 258 320 247 313 272 228 269 270 266 271 272 285 297
268 286 304 316 307 330 336 341 341 341 295 280 292 331 268 169 225 227 188 210 187 211 188 232 251 189 148 212 206 267 236 257 276 352 249 33 292 125 285 272 291 292 291 311 325
273 280 286 282 279 305 317 343 350 341 289 285 41 18 69 170 82 19 195 214 219 188 149 246 179 163 182 219 146 231 250 245 209 215 336 278 265 276 227 270 282 292 20 63 87
277 279 275 274 276 276 288 325 342 263 252 335 39 359 48 132 14 64 102 144 24 172 292 261 320 179 210 186 179 120 71 48 51 91 272 211 196 309 203 192 120 353 25 26 76
269 271 271 270 260 251 274 299 237 224 351 334 349 31 339 348 4 31 36 342 248 349 320 307 238 268 177 160 76 123 74 321 314 359 244 358 257 257 287 255 3 358 333 22 33
266 266 262 261 250 241 213 112 225 205 247 214 230 258 213 114 60 339 25 291 211 177 164 287 296 190 180 204 191 179 169 174 230 246 291 119 246 255 230 337 84 34 25 17 13
266 268 261 255 247 238 180 227 237 189 194 197 148 242 251 250 195 195 218 254 263 175 204 206 254 243 220 157 165 165 188 196 141 116 285 247 277 318 349 97 91 35 33 26 24
273 273 269 256 231 215 223 241 217 210 49 329 248 187 231 224 230 186 226 11 355 212 34 332 289 243 298 85 259 181 177 85 23 224 231 270 273 225 318 346 31 28 16 13 15
272 244 228 206 194 186 221 233 243 244 220 228 254 263 240 322 228 185 217 235 200 184 148 170 222 264 358 205 201 151 225 222 334 165 240 253 263 131 89 72 53 32 29 15 6
180 201 167 161 181 199 229 204 232 274 280 274 289 255 256 270 270 267 268 241 198 178 201 193 190 231 243 241 212 190 212 222 244 261 230 241 247 307 84 84 70 44 34 21 16
171 203 159 178 204 224 240 250 233 199 181 225 239 223 232 272 275 244 261 281 355 208 216 84 246 265 282 252 14 191 280 252 275 280 251 255 248 10 134 112 53 53 28 24 15
163 109 175 209 241 214 230 258 239 272 237 223 240 263 278 270 259 272 290 344 339 343 315 308 225 249 258 265 350 262 276 304 257 254 307 284 308 312 306 344 24 45 27 10 3
180 201 173 215 266 241 223 261 241 291 293 40 267 212 76 281 296 269 279 340 59 350 352 296 261 267 265 273 311 284 271 270 260 264 267 288 283 277 300 324 346 344 342 331 342
169 152 172 257 269 221 201 247 257 281 289 271 235 14 357 252 267 291 276 182 229 346 1 6 300 346 273 281 273 287 283 268 271 271 268 265 265 91 358 317 318 330 318 315 318
199 179 150 250 195 145 219 206 93 347 54 75 82 11 324 173 155 243 245 253 250 257 270 267 255 273 271 301 327 285 258 265 249 217 267 262 258 209 257 257 281 322 313 311 321